Regional Weather Roundup
Issued by NWS

Home | Current Version | Previous Version | Text Only | Print | Product List | Glossary Off
Versions: 1 2 3 4 5 6 7 8 9 10 11 12 13 14 15 16 17 18 19 20 21 22 23 24 25 26 27 28 29 30 31 32 33 34 35 36 37 38 39 40 41 42 43 44 45 46 47 48 49 50

000
ASUS43 KIND 210109
RWRIN

WEATHER ROUNDUP FOR INDIANA
NATIONAL WEATHER SERVICE INDIANAPOLIS IN
900 PM EDT SUN MAY 20 2018

NOTE: "FAIR" INDICATES FEW OR NO CLOUDS BELOW 12,000 FEET WITH NO
SIGNIFICANT WEATHER AND/OR OBSTRUCTIONS TO VISIBILITY.

* - STATION DOES NOT REPORT WEATHER SUCH AS PRECIPITATION OR FOG.

+ - STATION NOT QUALITY CONTROLLED BY THE NATIONAL WEATHER SERVICE.
    USE DATA WITH CAUTION...ESPECIALLY DEWPOINT AND RELATIVE
    HUMIDITY OBSERVATIONS.

INZ001>003-010>013-019-020-210200-
NORTHWEST INDIANA

CITY           SKY/WX    TMP DP  RH WIND       PRES   REMARKS
GARY /AIRPORT/ CLOUDY    46  45  93 NW6       30.16F
KNOX *+        CLOUDY    57  54  88 NE8       30.12F
LA PORTE +     CLOUDY    57  55  91 NE3       30.14F
MICHIGAN CITY+ CLOUDY    50  50 100 N5        30.15F
MONTICELLO +   FAIR     N/A N/A N/A NE8       30.08F
RENSSELAER +   FAIR      55  50  82 N6        30.11F
VALPARAISO     MOCLDY    56  52  86 NE9       30.10F

$$

LMZ046-743>745-210200-
SOUTHERN LAKE MICHIGAN

STATION/POSITION TIME  TEMP    WIND        PRES    WAVE
                       AIR SEA DIR/SP/G            HT
                 (UTC) (F)     (DEG/KT/KT) (MB)    (FT)
BURNS HARBOR     0040   47      30/  8/ 10 1021.0F
MICHIGAN CITY    0040   49     350/  7/  8   N/A
5NW MICH CITY    0050   46 52   20/  6/  8   N/A     3

$$

INZ004-005-014>016-021>024-210200-
NORTH CENTRAL INDIANA

CITY           SKY/WX    TMP DP  RH WIND       PRES   REMARKS
GOSHEN         MOCLDY    62  59  90 NE10      30.14R
LOGANSPORT +   FAIR      68  61  77 CALM      30.11S
PERU/GRISSOM   CLOUDY    67  66  98 NE6       30.09S
ROCHESTER +    CLOUDY    68  61  77 NE5       30.12S
SOUTH BEND     CLOUDY    61  57  87 SE7       30.16R
WARSAW +       CLOUDY    64  61  88 N9        30.14R

$$

INZ006>009-017-018-025>027-210200-
NORTHEAST INDIANA

CITY           SKY/WX    TMP DP  RH WIND       PRES   REMARKS
ANGOLA *+      CLOUDY    61  57  88 NE6       30.15R
AUBURN +       CLOUDY    63  59  88 NE7       30.15R
FORT WAYNE     CLOUDY    68  62  81 NE10      30.12S
HUNTINGTON +   CLOUDY    68  62  83 NE5       30.11R
KENDALLVILLE +   N/A     63  58  81 E7        30.14R

$$

INZ028-029-035-036-043>045-051>053-210200-
WEST CENTRAL INDIANA

CITY           SKY/WX    TMP DP  RH WIND       PRES   REMARKS
CRAWFORDSVL +  FAIR      71  64  80 NE6       30.08R
GREENCASTLE +  FAIR      73  63  68 CALM      30.07S
LAFAYETTE      FAIR      68  62  81 NE6       30.07F
TERRE HAUTE    FAIR      77  64  64 E5        30.05S

$$

INZ030>032-037>040-046>048-054>057-064-065-210200-
CENTRAL INDIANA

CITY           SKY/WX    TMP DP  RH WIND       PRES   REMARKS
ANDERSON       FAIR      71  63  75 CALM      30.10R
COLUMBUS       CLEAR     73  64  73 E5        30.07R
FISHERS *+     FAIR      72  66  83 NE5       30.09
FRANKFORT +    FAIR      72  64  76 E5        30.10F
GREENWOOD *+   FAIR      76  64  66 NE7       30.08R
INDIANAPOLIS   MOCLDY    76  65  68 NE9       30.06S
-EAGLE CREEK   FAIR      76  64  66 NE6       30.07R
KOKOMO +       FAIR      68  63  84 NE6       30.11S
MARION +       FAIR      68  62  81 CALM      30.11S
MT COMFORT *+  FAIR      72  66  83 NE6       30.09R
SHELBYVILLE    FAIR      77  67  71 NE6       30.07R
ZIONSVILLE +   FAIR      70  64  82 NE6       30.09S

$$

INZ033-034-041-042-049-050-058-059-210200-
EAST CENTRAL INDIANA

CITY           SKY/WX    TMP DP  RH WIND       PRES   REMARKS
MUNCIE         FAIR      72  63  73 NE5       30.09R
RICHMOND +     FAIR      68  68 100 CALM      30.11R

$$

INZ060-061-067>069-081>083-085>088-210200-
SOUTHWEST INDIANA

CITY           SKY/WX    TMP DP  RH WIND       PRES   REMARKS
EVANSVILLE     FAIR      73  71  93 CALM      30.04R
HUNTINGBURG +  FAIR      79  69  71 S6        30.04S
WASHINGTON +   FAIR      79  63  58 CALM      30.03S

$$

INZ062-063-066-070>080-084-089>092-210200-
SOUTH CENTRAL AND SOUTHEAST INDIANA

CITY           SKY/WX    TMP DP  RH WIND       PRES   REMARKS
BATESVILLE +   CLEAR     72  70  94 NE5       30.09R
BEDFORD +      FAIR      77  66  69 CALM      30.05S
BLOOMINGTON    FAIR      78  65  63 NE3       30.06R
FRENCH LICK *+ FAIR      77  61  57 CALM      30.06R
MADISON *+     FAIR      70  63  78 E5        30.09F
NORTH VERNON + FAIR      72  66  83 NE3       30.06S
SEYMOUR +      FAIR      77  64  65 SE6       30.06R

$$





USA.gov is the U.S. government's official web portal to all federal, state and local government web resources and services.